CQ0XBF-11 Chamusca PT current weather conditions

sailwx.info

Wind from 063

Air temperature 7.2° C
Dewpoint 4.0° C

Last reported at 2017-Jan-17 03:48 UTC.
Time now 2017-Jan-17 05:01 UTC

Location: N 39°21' W 008°28'.
View on Google Maps.

See reports from other nearby stations

  
Tides and Currents Weather Stations Pressure Air Temp Water Temp Dewpoint Dewpoint Depression Visibility Wind Speed Wind Dir Waves Ship Positions
date/time (UTC)wind fromknots sea level pressurealtimeterstation pressurevisibilityair tempwater tempwave heightnotes
2017-Jan-17 03:48 063 7.2
2017-Jan-17 03:44 104 7.2
2017-Jan-17 03:38 229 7.2
2017-Jan-17 03:34 070 1 gusting 3 7.2
2017-Jan-17 03:28 265 0 gusting 5 7.2
2017-Jan-17 03:24 026 0 gusting 4 7.2
2017-Jan-17 03:20 139 1 gusting 4 7.2
2017-Jan-17 03:14 137 3 gusting 6 7.2
2017-Jan-17 03:10 198 0 gusting 6 7.2
2017-Jan-17 03:03 064 1 gusting 6 7.2
2017-Jan-17 02:59 323 0 gusting 6 7.2
2017-Jan-17 02:53 078 2 gusting 5 7.2
2017-Jan-17 02:49 127 1 gusting 6 7.2
2017-Jan-17 02:43 088 2 gusting 6 7.2
2017-Jan-17 02:39 104 4 gusting 5 7.2
2017-Jan-17 02:33 348 0 gusting 4 7.2
2017-Jan-17 02:29 040 0 gusting 4 7.2
2017-Jan-17 02:23 012 1 gusting 4 7.2
2017-Jan-17 02:19 243 0 gusting 4 7.2
2017-Jan-17 02:13 085 1 gusting 5 7.2
2017-Jan-17 02:09 081 1 gusting 5 7.2
2017-Jan-17 02:05 119 1 gusting 5 7.2
2017-Jan-17 01:59 338 4 gusting 6 7.2
2017-Jan-17 01:55 122 0 gusting 6 7.2
2017-Jan-17 01:48 098 1 gusting 2 7.2
2017-Jan-17 01:44 127 7.2
2017-Jan-17 01:38 085 0 gusting 2 7.8
2017-Jan-17 01:34 172 7.8
2017-Jan-17 01:28 115 7.8
2017-Jan-17 01:24 094 0 gusting 2 7.8
2017-Jan-17 01:18 116 7.8
2017-Jan-17 01:14 015 7.8
2017-Jan-17 01:08 101 2 gusting 4 7.8
2017-Jan-17 01:04 074 2 gusting 4 7.8
2017-Jan-17 00:58 068 4 gusting 4 7.8
2017-Jan-17 00:54 066 3 gusting 3 8.3
2017-Jan-17 00:48 084 0 gusting 3 8.3
2017-Jan-17 00:44 322 0 gusting 3 8.3
2017-Jan-17 00:40 075 8.3
2017-Jan-17 00:34 078 8.3
2017-Jan-17 00:29 279 0 gusting 4 8.3
2017-Jan-17 00:23 219 0 gusting 4 8.3
2017-Jan-17 00:19 090 0 gusting 4 8.3
2017-Jan-17 00:13 073 1 gusting 3 8.3
2017-Jan-17 00:09 157 1 gusting 3 8.3
2017-Jan-17 00:03 216 0 gusting 3 8.3
2017-Jan-16 23:59 313 2 gusting 4 8.9
2017-Jan-16 23:53 265 1 gusting 3 8.9
2017-Jan-16 23:49 137 2 gusting 6 8.9
2017-Jan-16 23:43 264 0 gusting 3 8.9
2017-Jan-16 23:39 344 1 gusting 4 8.9
2017-Jan-16 23:33 104 2 gusting 4 8.9
2017-Jan-16 23:29 171 1 gusting 4 8.9
2017-Jan-16 23:25 085 1 gusting 4 8.9
2017-Jan-16 23:19 097 1 gusting 5 8.9
2017-Jan-16 23:15 258 1 gusting 5 8.9
2017-Jan-16 23:08 098 2 gusting 5 8.9
2017-Jan-16 23:04 037 0 gusting 5 8.9
2017-Jan-16 22:58 068 2 gusting 4 8.9
2017-Jan-16 22:54 274 0 gusting 4 8.9
2017-Jan-16 22:48 085 0 gusting 4 8.9
2017-Jan-16 22:44 324 3 gusting 5 8.9
2017-Jan-16 22:38 056 1 gusting 5 8.9
2017-Jan-16 22:34 101 2 gusting 5 8.9
2017-Jan-16 22:28 067 2 gusting 5 8.9
2017-Jan-16 22:24 033 2 gusting 5 8.9
2017-Jan-16 22:18 104 0 gusting 3 8.9
2017-Jan-16 22:14 084 1 gusting 4 8.9
2017-Jan-16 22:10 129 1 gusting 4 8.9
2017-Jan-16 22:04 265 8.9
2017-Jan-16 22:00 285 8.9
2017-Jan-16 21:53 312 2 gusting 4 8.9
2017-Jan-16 21:49 348 1 gusting 4 9.4
2017-Jan-16 21:43 284 9.4
2017-Jan-16 21:39 350 0 gusting 4 9.4
2017-Jan-16 21:33 358 1 gusting 5 9.4
2017-Jan-16 21:29 313 0 gusting 4 9.4
2017-Jan-16 21:23 317 2 gusting 4 9.4
2017-Jan-16 21:19 002 9.4
2017-Jan-16 21:13 210 0 gusting 4 9.4
2017-Jan-16 21:09 007 0 gusting 3 9.4
2017-Jan-16 21:03 244 9.4
2017-Jan-16 20:59 153 9.4
2017-Jan-16 20:55 312 3 gusting 2 10.0
2017-Jan-16 20:49 326 2 gusting 2 10.0
2017-Jan-16 20:45 213 1 gusting 2 10.0
2017-Jan-16 20:39 305 1 gusting 3 10.0
2017-Jan-16 20:34 295 3 gusting 3 10.0
2017-Jan-16 20:28 289 10.0
2017-Jan-16 20:24 087 1 gusting 4 10.0
2017-Jan-16 20:18 293 10.0
2017-Jan-16 20:14 345 1 gusting 4 10.0
2017-Jan-16 20:08 324 3 gusting 2 10.6
2017-Jan-16 20:04 313 10.6
2017-Jan-16 19:58 109 10.6
2017-Jan-16 19:54 333 1 gusting 3 10.6
2017-Jan-16 19:48 182 10.6
2017-Jan-16 19:44 309 2 gusting 2 10.6
2017-Jan-16 19:38 172 11.1
2017-Jan-16 19:34 196 0 gusting 3 11.1
2017-Jan-16 19:30 070 11.1
2017-Jan-16 19:24 070 0 gusting 3 11.1
2017-Jan-16 19:19 157 11.1
2017-Jan-16 19:13 052 1 gusting 3 11.7
2017-Jan-16 19:09 241 0 gusting 3 11.7
2017-Jan-16 19:03 098 0 gusting 3 11.7
2017-Jan-16 18:59 133 1 gusting 4 11.7
2017-Jan-16 18:53 323 0 gusting 3 12.2
2017-Jan-16 18:49 120 0 gusting 1 12.2
2017-Jan-16 18:43 326 0 gusting 3 12.2
2017-Jan-16 18:39 157 12.2
2017-Jan-16 18:33 323 2 gusting 3 12.2
2017-Jan-16 18:29 323 0 gusting 3 12.8
2017-Jan-16 18:23 219 0 gusting 4 12.8
2017-Jan-16 18:19 291 1 gusting 4 12.8
2017-Jan-16 18:15 326 1 gusting 4 12.8
2017-Jan-16 18:09 307 1 gusting 3 13.3
2017-Jan-16 18:05 317 1 gusting 3 13.3
2017-Jan-16 17:58 261 13.3
2017-Jan-16 17:54 334 1 gusting 2 13.3
2017-Jan-16 17:46 289 0 gusting 4 13.3
2017-Jan-16 17:44 333 1 gusting 4 13.3
2017-Jan-16 17:38 331 3 gusting 4 13.9
2017-Jan-16 17:34 317 2 gusting 2 14.4
2017-Jan-16 17:28 340 1 gusting 4 14.4
2017-Jan-16 17:24 319 2 gusting 6 14.4
2017-Jan-16 17:18 324 0 gusting 2 15.0
2017-Jan-16 17:14 312 2 gusting 1 15.0
2017-Jan-16 17:08 316 1 gusting 1 15.6
2017-Jan-16 17:04 322 15.6
2017-Jan-16 17:00 344 15.6
2017-Jan-16 16:54 004 1 gusting 3 16.1
2017-Jan-16 16:49 032 0 gusting 3 16.7
2017-Jan-16 16:43 307 1 gusting 3 17.2
2017-Jan-16 16:39 322 0 gusting 2 17.2
2017-Jan-16 16:33 300 17.8
2017-Jan-16 16:29 264 17.8
2017-Jan-16 16:23 270 17.8
2017-Jan-16 16:19 303 2 gusting 4 17.8
2017-Jan-16 16:13 315 17.2
2017-Jan-16 16:09 306 1 gusting 4 17.8
2017-Jan-16 16:03 236 1 gusting 3 17.8
2017-Jan-16 15:59 300 2 gusting 2 17.8
2017-Jan-16 15:53 277 2 gusting 1 17.8
2017-Jan-16 15:49 330 1 gusting 1 17.8
2017-Jan-16 15:45 317 0 gusting 1 17.8
2017-Jan-16 15:39 313 1 gusting 1 17.8
2017-Jan-16 15:35 350 17.2
2017-Jan-16 15:28 319 0 gusting 2 17.2
2017-Jan-16 15:24 316 1 gusting 3 17.2
2017-Jan-16 15:18 309 2 gusting 2 17.2
2017-Jan-16 15:14 315 1 gusting 2 17.8
2017-Jan-16 15:08 289 17.2
2017-Jan-16 15:04 274 17.2
2017-Jan-16 14:58 213 17.2
2017-Jan-16 14:54 295 17.2
2017-Jan-16 14:48 007 0 gusting 1 17.2
2017-Jan-16 14:44 307 17.2
2017-Jan-16 14:38 165 16.7
2017-Jan-16 14:34 331 2 gusting 1 16.7
2017-Jan-16 14:30 315 16.7
2017-Jan-16 14:24 222 16.7
2017-Jan-16 14:20 309 0 gusting 2 16.1
2017-Jan-16 14:13 295 16.1
2017-Jan-16 14:09 310 0 gusting 2 16.1
2017-Jan-16 14:03 286 15.6
2017-Jan-16 13:59 282 15.0
2017-Jan-16 13:53 292 0 gusting 5 14.4
2017-Jan-16 13:49 303 2 gusting 4 14.4
2017-Jan-16 13:43 333 0 gusting 2 15.0
2017-Jan-16 13:39 258 0 gusting 3 14.4
2017-Jan-16 13:33 310 0 gusting 4 13.9
2017-Jan-16 13:29 351 0 gusting 4 13.9
2017-Jan-16 13:23 005 2 gusting 4 13.9
2017-Jan-16 13:19 317 4 gusting 4 13.3
2017-Jan-16 13:15 313 2 gusting 4 13.3
2017-Jan-16 13:09 299 5 gusting 4 13.3
2017-Jan-16 13:05 330 2 gusting 4 13.3
2017-Jan-16 12:59 014 2 gusting 4 12.8
2017-Jan-16 12:54 323 1 gusting 4 12.8
2017-Jan-16 12:48 330 12.8
2017-Jan-16 12:44 305 2 gusting 3 12.8
2017-Jan-16 12:38 313 12.2
2017-Jan-16 12:34 323 1 gusting 3 12.2
2017-Jan-16 12:28 305 2 gusting 2 12.2
2017-Jan-16 12:24 298 1 gusting 2 11.7
2017-Jan-16 12:18 340 1 gusting 2 11.7
2017-Jan-16 12:14 293 11.1
2017-Jan-16 12:08 303 0 gusting 2 10.6
2017-Jan-16 12:04 317 10.6
2017-Jan-16 12:00 334 0 gusting 3 10.6
2017-Jan-16 11:54 333 1 gusting 3 10.0
2017-Jan-16 11:50 350 1 gusting 3 10.0
2017-Jan-16 11:44 320 1 gusting 2 10.0
2017-Jan-16 11:39 300 1 gusting 2 9.4
2017-Jan-16 11:33 002 9.4
2017-Jan-16 11:29 261 0 gusting 2 8.9
2017-Jan-16 11:23 322 8.3
2017-Jan-16 11:19 313 8.3
2017-Jan-16 11:13 330 0 gusting 2 8.3
2017-Jan-16 11:09 322 8.3
2017-Jan-16 11:03 344 1 gusting 0 7.8
2017-Jan-16 10:59 306 7.8
2017-Jan-16 10:53 323 7.2
2017-Jan-16 10:49 299 7.2
2017-Jan-16 10:43 343 6.7
2017-Jan-16 10:39 327 6.7
2017-Jan-16 10:35 005 0 gusting 1 6.7
2017-Jan-16 10:29 047 6.1
2017-Jan-16 10:24 309 1 gusting 3 5.6
2017-Jan-16 10:18 293 1 gusting 4 5.6
2017-Jan-16 10:14 326 0 gusting 3 5.6
2017-Jan-16 10:08 331 1 gusting 2 6.1
2017-Jan-16 10:04 329 1 gusting 1 6.1
2017-Jan-16 09:58 067 6.1
2017-Jan-16 09:54 336 1 gusting 3 5.6
2017-Jan-16 09:48 082 5.6
2017-Jan-16 09:44 295 0 gusting 3 5.6
2017-Jan-16 09:38 278 0 gusting 3 5.6
2017-Jan-16 09:34 282 5.0
2017-Jan-16 09:28 175 0 gusting 4 5.0
2017-Jan-16 09:24 066 2 gusting 5 5.0
2017-Jan-16 09:20 125 1 gusting 5 5.0
2017-Jan-16 09:14 210 0 gusting 5 4.4
2017-Jan-16 09:09 236 2 gusting 5 4.4
2017-Jan-16 09:03 167 4.4
2017-Jan-16 08:59 119 0 gusting 4 4.4
2017-Jan-16 08:53 157 4.4
2017-Jan-16 08:49 099 1 gusting 5 4.4
2017-Jan-16 08:43 085 2 gusting 4 4.4
2017-Jan-16 08:39 073 4 gusting 4 4.4
2017-Jan-16 08:33 251 2 gusting 4 4.4
2017-Jan-16 08:29 175 0 gusting 4 4.4
2017-Jan-16 08:23 142 3 gusting 5 4.4
2017-Jan-16 08:19 019 1 gusting 5 4.4
2017-Jan-16 08:13 009 0 gusting 4 4.4
2017-Jan-16 08:09 092 3 gusting 3 3.9
2017-Jan-16 08:05 144 1 gusting 3 3.9
2017-Jan-16 07:59 111 2 gusting 2 3.3
2017-Jan-16 07:55 028 0 gusting 2 3.3
2017-Jan-16 07:48 268 1 gusting 3 3.9
2017-Jan-16 07:44 268 0 gusting 3 3.9
2017-Jan-16 07:38 168 3.9
2017-Jan-16 07:34 302 2 gusting 2 3.9
2017-Jan-16 07:28 322 3.9
2017-Jan-16 07:24 126 3.9
2017-Jan-16 07:18 161 3.9
2017-Jan-16 07:14 300 0 gusting 5 4.4
2017-Jan-16 07:08 300 2 gusting 6 4.4
2017-Jan-16 07:04 281 0 gusting 5 4.4
2017-Jan-16 06:58 274 0 gusting 5 4.4
2017-Jan-16 06:54 094 0 gusting 5 4.4
2017-Jan-16 06:50 160 0 gusting 5 4.4
2017-Jan-16 06:44 023 4.4
2017-Jan-16 06:40 098 2 gusting 6 4.4
2017-Jan-16 06:33 284 0 gusting 3 4.4
2017-Jan-16 06:29 298 2 gusting 3 4.4
2017-Jan-16 06:23 303 4.4
2017-Jan-16 06:19 047 3 gusting 6 4.4
2017-Jan-16 06:13 313 1 gusting 6 3.9
2017-Jan-16 06:09 115 0 gusting 6 3.9
2017-Jan-16 06:03 053 1 gusting 6 3.9
2017-Jan-16 05:59 049 2 gusting 6 3.9
2017-Jan-16 05:53 101 2 gusting 6 3.9
2017-Jan-16 05:49 109 1 gusting 5 3.9
2017-Jan-16 05:43 199 3.9
2017-Jan-16 05:39 168 0 gusting 2 3.9
2017-Jan-16 05:35 161 3.9
2017-Jan-16 05:29 030 3.9
2017-Jan-16 05:25 292 3.9
2017-Jan-16 05:19 167 4.4
2017-Jan-16 05:14 137 2 gusting 3 4.4
2017-Jan-16 05:08 258 0 gusting 3 4.4
2017-Jan-16 05:04 170 4.4
2017-Jan-16 04:58 234 0 gusting 3 4.4
2017-Jan-16 04:54 289 0 gusting 2 4.4
2017-Jan-16 04:48 188 0 gusting 3 4.4
2017-Jan-16 04:44 260 0 gusting 3 4.4
2017-Jan-16 04:38 222 0 gusting 3 4.4
2017-Jan-16 04:34 009 4.4
2017-Jan-16 04:28 246 4.4
2017-Jan-16 04:24 210 4.4
2017-Jan-16 04:18 340 0 gusting 6 4.4
2017-Jan-16 04:14 341 4 gusting 3 4.4
2017-Jan-16 04:10 150 0 gusting 3 4.4
2017-Jan-16 04:04 244 0 gusting 3 4.4
2017-Jan-16 03:59 174 4.4
2017-Jan-16 03:53 188 4.4
2017-Jan-16 03:49 230 0 gusting 2 5.0
2017-Jan-16 03:43 206 0 gusting 2 5.0
2017-Jan-16 03:39 171 5.0
2017-Jan-16 03:33 130 5.0
2017-Jan-16 03:29 129 3 gusting 5 5.0
2017-Jan-16 03:23 217 0 gusting 5 5.0
2017-Jan-16 03:19 329 1 gusting 5 5.0
2017-Jan-16 03:13 084 2 gusting 3 5.0
2017-Jan-16 03:09 323 0 gusting 3 5.0
2017-Jan-16 03:03 192 0 gusting 2 5.0
2017-Jan-16 02:59 194 0 gusting 3 5.0
2017-Jan-16 02:55 022 1 gusting 3 5.0
2017-Jan-16 02:49 030 5.0
2017-Jan-16 02:44 347 5.0
2017-Jan-16 02:38 053 5.0
2017-Jan-16 02:34 168 5.0
2017-Jan-16 02:28 081 0 gusting 3 5.6
2017-Jan-16 02:24 178 1 gusting 3 5.6
2017-Jan-16 02:18 151 2 gusting 3 5.6
2017-Jan-16 02:14 071 0 gusting 3 5.6
2017-Jan-16 02:08 078 0 gusting 1 5.6
2017-Jan-16 02:04 171 5.6
2017-Jan-16 01:58 289 5.6
2017-Jan-16 01:54 319 5.6
2017-Jan-16 01:50 279 6.1
2017-Jan-16 01:44 312 2 gusting 2 6.1
2017-Jan-16 01:40 133 0 gusting 2 6.1
2017-Jan-16 01:33 188 6.1
2017-Jan-16 01:29 188 0 gusting 4 6.1
2017-Jan-16 01:23 303 1 gusting 6 6.1
2017-Jan-16 01:19 307 2 gusting 5 6.1
2017-Jan-16 01:13 239 0 gusting 6 6.7
2017-Jan-16 01:09 061 4 gusting 5 6.1
2017-Jan-16 01:03 078 2 gusting 5 6.7
2017-Jan-16 00:59 123 2 gusting 5 6.7
2017-Jan-16 00:53 106 4 gusting 4 6.7
2017-Jan-16 00:49 092 2 gusting 5 6.7
2017-Jan-16 00:43 059 6.7
2017-Jan-16 00:39 109 1 gusting 3 6.7
2017-Jan-16 00:33 126 6.7
2017-Jan-16 00:29 143 0 gusting 2 6.7
2017-Jan-16 00:25 240 0 gusting 2 6.7
2017-Jan-16 00:19 078 6.7
2017-Jan-16 00:14 171 6.7
2017-Jan-16 00:08 061 3 gusting 3 6.7
2017-Jan-16 00:04 080 1 gusting 2 6.7
2017-Jan-15 23:58 247 7.2
2017-Jan-15 23:54 104 7.2
2017-Jan-15 23:48 130 7.2
2017-Jan-15 23:44 066 7.2
2017-Jan-15 23:38 243 0 gusting 2 7.2
2017-Jan-15 23:34 331 0 gusting 2 7.2
2017-Jan-15 23:28 182 7.2
2017-Jan-15 23:24 219 0 gusting 2 7.2
2017-Jan-15 23:18 196 7.2
2017-Jan-15 23:14 248 7.2
2017-Jan-15 23:10 209 7.2
2017-Jan-15 23:04 175 7.2
2017-Jan-15 23:00 271 7.2
2017-Jan-15 22:53 345 7.8
2017-Jan-15 22:49 309 1 gusting 3 7.8
2017-Jan-15 22:43 082 7.8
2017-Jan-15 22:39 185 0 gusting 3 7.8
2017-Jan-15 22:33 248 0 gusting 4 7.8
2017-Jan-15 22:29 243 1 gusting 2 7.8
2017-Jan-15 22:23 257 7.8
2017-Jan-15 22:19 352 0 gusting 4 7.8
2017-Jan-15 22:13 310 3 gusting 3 7.8
2017-Jan-15 22:09 306 7.8
2017-Jan-15 22:03 125 7.8
2017-Jan-15 21:59 324 2 gusting 3 7.8
2017-Jan-15 21:55 108 0 gusting 3 7.8
2017-Jan-15 21:49 322 2 gusting 4 7.8
2017-Jan-15 21:45 282 8.3
2017-Jan-15 21:38 303 3 gusting 1 7.8
2017-Jan-15 21:34 323 8.3
2017-Jan-15 21:28 322 0 gusting 1 8.3
2017-Jan-15 21:24 251 8.3
2017-Jan-15 21:18 261 8.3
2017-Jan-15 21:14 143 8.3
2017-Jan-15 21:08 182 8.3
2017-Jan-15 21:04 161 8.3
2017-Jan-15 20:58 351 8.9
2017-Jan-15 20:54 088 8.9
2017-Jan-15 20:48 113 0 gusting 2 8.9
2017-Jan-15 20:44 272 8.9
2017-Jan-15 20:40 324 8.9
2017-Jan-15 20:34 120 8.9
2017-Jan-15 20:30 295 8.9
2017-Jan-15 20:23 338 0 gusting 5 8.9
2017-Jan-15 20:19 296 3 gusting 5 8.9
2017-Jan-15 20:13 011 1 gusting 6 8.9
2017-Jan-15 20:09 313 0 gusting 6 8.9
2017-Jan-15 20:03 329 1 gusting 6 8.9
2017-Jan-15 19:59 341 2 gusting 3 8.9
2017-Jan-15 19:53 317 1 gusting 4 9.4
2017-Jan-15 19:49 326 1 gusting 5 9.4
2017-Jan-15 19:43 315 1 gusting 6 9.4
2017-Jan-15 19:39 347 2 gusting 4 9.4
2017-Jan-15 19:33 337 1 gusting 2 9.4
2017-Jan-15 19:29 264 9.4
2017-Jan-15 19:23 345 2 gusting 5 9.4
2017-Jan-15 19:19 312 1 gusting 5 9.4
2017-Jan-15 19:15 347 3 gusting 5 10.0
2017-Jan-15 19:09 312 0 gusting 4 10.0
2017-Jan-15 19:04 275 2 gusting 4 10.0
2017-Jan-15 18:58 338 2 gusting 5 10.0
2017-Jan-15 18:54 005 1 gusting 6 10.0
2017-Jan-15 18:48 313 2 gusting 5 10.0
2017-Jan-15 18:44 015 2 gusting 5 10.0
2017-Jan-15 18:38 081 0 gusting 5 10.6
2017-Jan-15 18:34 345 2 gusting 6 10.6
2017-Jan-15 18:28 345 1 gusting 6 10.6
2017-Jan-15 18:24 317 1 gusting 6 10.6
2017-Jan-15 18:18 272 3 gusting 6 10.6
2017-Jan-15 18:14 316 6 gusting 6 10.6
2017-Jan-15 18:10 316 3 gusting 6 11.1
2017-Jan-15 18:04 296 4 gusting 6 11.1
2017-Jan-15 18:00 317 8 gusting 6 11.1
2017-Jan-15 17:53 330 4 gusting 6 11.7
2017-Jan-15 17:49 345 4 gusting 6 11.7
2017-Jan-15 17:43 331 3 gusting 5 12.2
2017-Jan-15 17:39 320 2 gusting 5 12.2
2017-Jan-15 17:33 338 2 gusting 6 12.8
2017-Jan-15 17:29 324 4 gusting 5 12.8
2017-Jan-15 17:23 343 2 gusting 3 13.9
2017-Jan-15 17:19 288 1 gusting 1 14.4
2017-Jan-15 17:13 267 15.0
2017-Jan-15 17:09 262 15.6
2017-Jan-15 17:03 262 15.6
2017-Jan-15 16:59 262 15.6
2017-Jan-15 16:53 262 16.1
2017-Jan-15 16:49 226 16.1
2017-Jan-15 16:45 244 16.1
2017-Jan-15 16:39 244 16.1
2017-Jan-15 16:34 240 1 gusting 2 16.1
2017-Jan-15 16:28 236 1 gusting 5 16.7
2017-Jan-15 16:24 247 16.7
2017-Jan-15 16:18 225 1 gusting 1 16.7
2017-Jan-15 16:14 258 16.7
2017-Jan-15 16:08 257 1 gusting 3 16.1
2017-Jan-15 16:04 298 1 gusting 2 16.7
2017-Jan-15 15:58 310 16.7
2017-Jan-15 15:54 281 16.7
2017-Jan-15 15:48 281 16.7
2017-Jan-15 15:44 300 2 gusting 1 16.7
2017-Jan-15 15:38 192 0 gusting 3 17.2
2017-Jan-15 15:34 175 17.2
2017-Jan-15 15:30 246 1 gusting 3 17.2
2017-Jan-15 15:24 223 3 gusting 3 17.2
2017-Jan-15 15:19 236 16.7
2017-Jan-15 15:13 261 16.7
2017-Jan-15 15:09 268 2 gusting 2 16.7
2017-Jan-15 15:03 261 16.7
2017-Jan-15 14:59 336 16.7
2017-Jan-15 14:53 302 16.7
2017-Jan-15 14:49 306 16.1
2017-Jan-15 14:43 309 16.1
2017-Jan-15 14:39 151 15.6
2017-Jan-15 14:31 270 2 gusting 5 15.0
2017-Jan-15 14:29 317 4 gusting 3 15.0
2017-Jan-15 14:23 234 15.6
2017-Jan-15 14:19 296 2 gusting 4 15.0
2017-Jan-15 14:15 327 2 gusting 4 15.0
2017-Jan-15 14:09 277 1 gusting 2 15.0
2017-Jan-15 14:05 322 0 gusting 2 15.0
2017-Jan-15 13:58 324 0 gusting 1 15.0
2017-Jan-15 13:54 239 15.0
2017-Jan-15 13:48 334 0 gusting 2 14.4
2017-Jan-15 13:44 292 0 gusting 1 14.4
2017-Jan-15 13:38 239 0 gusting 3 13.9
2017-Jan-15 13:34 322 2 gusting 4 13.3
2017-Jan-15 13:28 337 0 gusting 2 13.3
2017-Jan-15 13:24 331 13.3
2017-Jan-15 13:18 323 12.8
2017-Jan-15 13:14 333 2 gusting 4 12.8
2017-Jan-15 13:08 320 1 gusting 3 12.8
2017-Jan-15 13:04 338 0 gusting 4 12.8
2017-Jan-15 13:00 303 0 gusting 4 12.2
2017-Jan-15 12:54 341 2 gusting 5 12.2
2017-Jan-15 12:50 319 3 gusting 5 11.7
2017-Jan-15 12:43 316 1 gusting 4 11.7
2017-Jan-15 12:39 305 11.7
2017-Jan-15 12:33 289 0 gusting 2 11.7
2017-Jan-15 12:29 313 2 gusting 2 11.7
2017-Jan-15 12:23 313 11.7
2017-Jan-15 12:19 317 1 gusting 2 11.1
2017-Jan-15 12:13 329 0 gusting 2 11.1
2017-Jan-15 12:09 323 0 gusting 2 11.1
2017-Jan-15 12:03 264 10.6
2017-Jan-15 11:59 014 10.6
2017-Jan-15 11:53 355 1 gusting 1 10.6
2017-Jan-15 11:49 302 0 gusting 2 10.6
2017-Jan-15 11:45 345 0 gusting 2 10.0
2017-Jan-15 11:39 344 10.0
2017-Jan-15 11:35 028 0 gusting 2 10.0
2017-Jan-15 11:29 315 0 gusting 1 9.4
2017-Jan-15 11:24 278 0 gusting 1 8.9
2017-Jan-15 11:18 029 8.9
2017-Jan-15 11:14 303 8.3
2017-Jan-15 11:08 303 7.8
2017-Jan-15 11:04 347 7.8
2017-Jan-15 10:58 323 0 gusting 1 7.2
2017-Jan-15 10:54 310 7.2
2017-Jan-15 10:48 087 6.7
2017-Jan-15 10:44 317 6.7
2017-Jan-15 10:38 338 0 gusting 2 6.1
2017-Jan-15 10:34 268 6.1
2017-Jan-15 10:28 299 0 gusting 2 6.1
2017-Jan-15 10:24 334 1 gusting 1 6.1
2017-Jan-15 10:20 002 0 gusting 1 6.1
2017-Jan-15 10:14 337 5.6
2017-Jan-15 10:09 046 5.6
2017-Jan-15 10:03 046 5.6
2017-Jan-15 09:59 046 5.0
2017-Jan-15 09:53 046 5.0
2017-Jan-15 09:49 056 4.4
2017-Jan-15 09:43 097 4.4
2017-Jan-15 09:39 045 0 gusting 0 3.9
2017-Jan-15 09:33 319 3.9
2017-Jan-15 09:29 340 3.9
2017-Jan-15 09:23 080 3.9
2017-Jan-15 09:19 057 3.9
2017-Jan-15 09:13 057 3.3
2017-Jan-15 09:09 059 3.3
2017-Jan-15 09:05 077 3.3
2017-Jan-15 08:59 070 3.3
2017-Jan-15 08:55 094 3.3
2017-Jan-15 08:48 088 1 gusting 4 3.3
2017-Jan-15 08:44 189 3.3
2017-Jan-15 08:38 064 3 gusting 4 3.3
2017-Jan-15 08:34 098 1 gusting 4 3.3
2017-Jan-15 08:28 092 2 gusting 4 3.3
2017-Jan-15 08:24 052 1 gusting 4 3.3
2017-Jan-15 08:18 106 2 gusting 3 3.3
2017-Jan-15 08:14 084 2 gusting 4 3.3
2017-Jan-15 08:08 074 0 gusting 4 2.8
2017-Jan-15 08:04 090 3 gusting 4 2.2
2017-Jan-15 07:58 208 1 gusting 4 2.2
2017-Jan-15 07:54 075 3 gusting 5 2.2
2017-Jan-15 07:50 075 3 gusting 5 2.2
2017-Jan-15 07:44 052 2 gusting 3 2.2
2017-Jan-15 07:40 095 2 gusting 3 2.2
2017-Jan-15 07:33 052 1 gusting 3 2.2
2017-Jan-15 07:29 066 2.2
2017-Jan-15 07:23 130 2.2
2017-Jan-15 07:19 149 0 gusting 2 2.2
2017-Jan-15 07:13 299 1 gusting 3 2.2
2017-Jan-15 07:09 282 2.2
2017-Jan-15 07:03 357 1 gusting 3 2.2
2017-Jan-15 06:59 340 1 gusting 4 2.2
2017-Jan-15 06:53 341 4 gusting 3 2.8
2017-Jan-15 06:49 337 0 gusting 2 2.8
2017-Jan-15 06:43 341 3.3
2017-Jan-15 06:39 345 1 gusting 0 3.3
2017-Jan-15 06:35 334 0 gusting 0 3.3
2017-Jan-15 06:29 068 3.3
2017-Jan-15 06:25 046 3.3
2017-Jan-15 06:19 081 0 gusting 2 3.3
2017-Jan-15 06:14 330 3.3
2017-Jan-15 06:08 324 1 gusting 1 3.9
2017-Jan-15 06:04 011 3.3
2017-Jan-15 05:58 085 3.9
2017-Jan-15 05:54 085 3.9
2017-Jan-15 05:48 046 1 gusting 1 3.3
2017-Jan-15 05:44 084 1 gusting 0 3.3
2017-Jan-15 05:38 095 3.3
2017-Jan-15 05:34 074 1 gusting 1 3.3
2017-Jan-15 05:28 050 3.9
2017-Jan-15 05:24 329 3.9
2017-Jan-15 05:18 351 0 gusting 1 3.9
2017-Jan-15 05:14 209 3.9
2017-Jan-15 05:10 108 1 gusting 2 3.9
2017-Jan-15 05:04 081 2 gusting 2 3.9